Terug naar catalogus

COSMOS 1275 DEB

ActiefPO
NORAD 42191·DEBRIS·🇷🇺 Russia

Gelanceerd Jun 4, 1981 vanaf Plesetsk Cosmodrome

Loading…

Volgende Passages (komende 24 uur)

TLE

VerouderendSource: Space-Track

Epoch: Sep 9, 2026, 04:01 UTC

1 42191U 81053TF  26252.16755726  .00001243  00000-0  68105-3 0  9993
2 42191  82.8189  59.0419 0037195  74.5853 285.9427 14.10811642655012

Volg COSMOS 1275 DEB in realtime met AllMySat

Download on the App Store